Weather History for Hanford, CA

Change the Weather History Date:

Friday, November 23, 2012

  Actual Average Record
Temperature  
Mean Temperature 52 °F 49 °F  
Max Temperature 67 °F 61 °F 72 °F (1998)
Min Temperature 36 °F 37 °F 24 °F (2003)
Degree Days  
Heating Degree Days 13    
Month to date heating degree days 244  
Since 1 July heating degree days 327  
Cooling Degree Days 0    
Month to date cooling degree days 0  
Year to date cooling degree days 2018  
Growing Degree Days 1 (Base 50)    
Moisture  
Dew Point 41 °F    
Average Humidity 76    
Maximum Humidity 100    
Minimum Humidity 52    
Precipitation  
Precipitation 0.00 in 0.03 in 0.15 in (2010)
Month to date precipitation 0.17 0.87  
Year to date precipitation 4.89 8.34  
Since 1 July precipitation 0.31 1.58  
Snow  
Snow 0.00 in - - ()
Month to date snowfall 0.0  
Since 1 July snowfall 0.0  
Since 1 September snowfall 0.0  
Snow Depth 0.00 in    
Sea Level Pressure  
Sea Level Pressure 30.25 in    
Wind  
Wind Speed 1 mph (NW)    
Max Wind Speed 7 mph    
Max Gust Speed 22 mph    
Visibility 3 miles    
Events Fog    
T = Trace of Precipitation, MM = Missing Value Source: NWS Daily Summary

Daily Weather History Graph

Daily Weather History Graph

Search for Another Location

Airport:

Trip Planner

Search our weather history database for the weather conditions in past years. The results will help you decide how hot, cold, wet, or windy it might be!

Date:

Astronomy

Nov. 23, 2012 Rise Set
Actual Time 6:44 AM PST 4:45 PM PST
Civil Twilight 6:16 AM PST 5:13 PM PST
Nautical Twilight 5:44 AM PST 5:45 PM PST
Astronomical Twilight 5:14 AM PST 6:15 PM PST
Moon 1:56 PM PST (11/23) 2:14 AM PST (11/23)
Length of Visible Light 10h 57m
Length of Day
10h 01m
Waxing Gibbous, 80% of the Moon is Illuminated
Nov 23
Waxing Gibbous
Nov 28
Full
Dec 6
Last Quarter
Dec 13
New
Dec 19
First Quarter

Hourly Weather History & Observations

Time (PST) Temp. Dew Point Humidity Pressure Visibility Wind Dir Wind Speed Gust Speed Precip Events Conditions
12:01 AM 42.8 °F 39.2 °F 87% 30.25 in 1.2 mi Calm Calm - N/A   Clear
12:12 AM 39.2 °F 37.4 °F 93% 30.25 in 0.2 mi Calm Calm - N/A Fog Fog
12:53 AM 39.0 °F 39.0 °F 100% 30.26 in 0.2 mi Calm Calm - N/A Fog Fog
1:09 AM 39.2 °F 37.4 °F 93% 30.25 in 1.0 mi Calm Calm - N/A   Clear
1:17 AM 39.2 °F 37.4 °F 93% 30.25 in 6.0 mi Calm Calm - N/A   Clear
1:47 AM 39.2 °F 39.2 °F 100% 30.25 in 1.8 mi Calm Calm - N/A   Clear
1:48 AM 39.0 °F 39.0 °F 100% 30.26 in 1.5 mi Calm Calm - N/A   Clear
2:01 AM 41.0 °F 39.2 °F 93% 30.25 in 3.0 mi Calm Calm - N/A   Clear
2:11 AM 41.0 °F 39.2 °F 93% 30.25 in 1.8 mi Calm Calm - N/A   Clear
2:22 AM 39.2 °F 37.4 °F 93% 30.25 in 1.2 mi Calm Calm - N/A   Partly Cloudy
2:30 AM 39.2 °F 37.4 °F 93% 30.25 in 0.8 mi Calm Calm - N/A   Mist
2:39 AM 39.2 °F 37.4 °F 93% 30.25 in 0.2 mi Calm Calm - N/A Fog Fog
2:53 AM 37.9 °F 37.9 °F 100% 30.26 in 0.2 mi Calm Calm - N/A Fog Fog
3:53 AM 39.0 °F 37.9 °F 96% 30.25 in 0.2 mi Calm Calm - N/A Fog Fog
4:07 AM 39.2 °F 37.4 °F 93% 30.25 in 0.2 mi Calm Calm - N/A Fog Fog
4:41 AM 37.4 °F 35.6 °F 93% 30.25 in 0.2 mi Calm Calm - N/A Fog Fog
4:53 AM 36.0 °F 36.0 °F 100% 30.26 in 0.2 mi Calm Calm - N/A Fog Fog
5:26 AM 37.4 °F 35.6 °F 93% 30.25 in 0.2 mi Calm Calm - N/A Fog Fog
5:53 AM 37.0 °F 37.0 °F 100% 30.27 in 0.2 mi Calm Calm - N/A Fog Fog
6:53 AM 37.0 °F 36.0 °F 96% 30.28 in 0.2 mi Calm Calm - N/A Fog Fog
7:50 AM 41.0 °F 39.2 °F 93% 30.29 in 0.2 mi Calm Calm - N/A Fog Fog
7:53 AM 41.0 °F 41.0 °F 100% 30.30 in 0.2 mi Calm Calm - N/A Fog Fog
8:53 AM 44.1 °F 44.1 °F 100% 30.31 in 0.2 mi Calm Calm - N/A Fog Fog
9:17 AM 46.4 °F 44.6 °F 93% 30.30 in 0.8 mi Calm Calm - N/A   Overcast
9:45 AM 48.2 °F 46.4 °F 93% 30.30 in 1.8 mi Calm Calm - N/A   Mostly Cloudy
9:53 AM 48.9 °F 46.9 °F 93% 30.31 in 3.0 mi Calm Calm - N/A   Mostly Cloudy
10:01 AM 51.8 °F 46.4 °F 82% 30.30 in 4.0 mi Calm Calm - N/A   Scattered Clouds
10:53 AM 55.9 °F 48.0 °F 75% 30.29 in 6.0 mi Calm Calm - N/A   Haze
11:53 AM 60.1 °F 48.0 °F 64% 30.25 in 7.0 mi Calm Calm - N/A   Clear
12:53 PM 63.0 °F 46.9 °F 56% 30.22 in 8.0 mi Calm Calm - N/A   Clear
1:53 PM 64.9 °F 46.9 °F 52% 30.20 in 9.0 mi WNW 3.5 mph - N/A   Clear
2:53 PM 66.9 °F 48.0 °F 51% 30.19 in 9.0 mi NW 5.8 mph - N/A   Clear
3:53 PM 64.9 °F 48.0 °F 54% 30.19 in 9.0 mi NW 5.8 mph - N/A   Clear
4:53 PM 60.1 °F 46.9 °F 62% 30.19 in 9.0 mi NW 3.5 mph - N/A   Clear
5:53 PM 54.0 °F 46.0 °F 75% 30.19 in 9.0 mi Calm Calm - N/A   Clear
6:53 PM 48.9 °F 45.0 °F 86% 30.20 in 9.0 mi NW 3.5 mph - N/A   Clear
7:53 PM 46.9 °F 43.0 °F 86% 30.22 in 7.0 mi Calm Calm - N/A   Clear
8:53 PM 48.9 °F 46.0 °F 90% 30.22 in 7.0 mi Calm Calm - N/A   Clear
9:53 PM 45.0 °F 43.0 °F 93% 30.23 in 5.0 mi Calm Calm - N/A   Clear
10:53 PM 45.0 °F 42.1 °F 90% 30.22 in 4.0 mi Calm Calm - N/A   Clear
11:00 PM 42.8 °F 42.8 °F 100% 30.22 in 1.5 mi Calm Calm - N/A   Clear
11:14 PM 41.0 °F 37.4 °F 87% 30.22 in 3.0 mi Calm Calm - N/A   Clear
11:20 PM 42.8 °F 37.4 °F 81% 30.22 in 1.8 mi Calm Calm - N/A   Clear
11:34 PM 42.8 °F 39.2 °F 87% 30.22 in 0.2 mi Calm Calm - N/A Fog Fog
11:53 PM 39.0 °F 37.9 °F 96% 30.23 in 1.5 mi Calm Calm - N/A   Clear